Location: Malvern Link
(52.1333°N, 2.3000°W)
Time: 11:21:02
(UTC+00:00)

DOVE 4 - Visible Passes

Search period start: 25 June 2022 00:00
Search period end: 05 July 2022 00:00
Orbit: 586 x 798 km, 97.8° (Epoch: 24 June)

Date Brightness Start Highest point End Pass type
(mag) Time Alt. Az. Time Alt. Az. Time Alt. Az.
25 Jun ? 00:18:27 10° N 00:23:09 69° WNW 00:26:40 19° SSW visible
25 Jun ? 01:57:45 10° NNW 02:00:01 13° NW 02:02:20 10° W visible
25 Jun ? 23:20:38 10° NNE 23:25:10 40° E 23:28:09 20° SSE visible
26 Jun ? 00:58:26 10° N 01:02:41 34° WNW 01:06:50 12° SW visible
26 Jun ? 22:24:08 10° NE 22:26:44 14° E 22:29:24 10° ESE visible
27 Jun ? 00:00:08 10° NNE 00:04:57 86° ESE 00:08:18 22° SSW visible
27 Jun ? 01:38:49 10° NNW 01:42:01 18° WNW 01:45:20 10° W visible
27 Jun ? 23:02:34 10° NNE 23:06:50 30° E 23:09:46 17° SE visible
28 Jun ? 00:39:57 10° N 00:44:34 46° WNW 00:48:27 15° SW visible
28 Jun ? 22:08:12 10° E 22:08:14 10° E 22:08:16 10° E visible
28 Jun ? 23:41:52 10° NNE 23:46:43 62° ESE 23:49:55 22° S visible
29 Jun ? 01:20:06 10° N 01:23:58 24° WNW 01:27:59 10° WSW visible
29 Jun ? 22:44:38 10° NE 22:48:27 22° E 22:51:22 14° SE visible
30 Jun ? 00:21:33 10° N 00:26:24 65° WNW 00:30:03 19° SSW visible
30 Jun ? 02:00:54 10° NNW 02:03:10 13° NW 02:05:29 10° W visible
30 Jun ? 23:23:41 10° NNE 23:28:25 45° E 23:31:30 21° SSE visible
01 Jul ? 01:01:32 10° N 01:05:52 33° WNW 01:10:10 11° SW visible
01 Jul ? 22:26:55 10° NE 22:30:00 16° E 22:32:57 11° ESE visible
02 Jul ? 00:03:12 10° NNE 00:08:11 88° WNW 00:11:37 22° SSW visible
02 Jul ? 01:41:55 10° NNW 01:45:10 18° NW 01:48:29 10° W visible
02 Jul ? 23:05:34 10° NNE 23:10:04 33° E 23:13:04 19° SSE visible
03 Jul ? 00:43:02 10° N 00:47:45 44° WNW 00:51:44 15° SW visible
03 Jul ? 22:09:48 10° ENE 22:11:29 11° E 22:13:11 10° ESE visible
03 Jul ? 23:44:55 10° NNE 23:49:56 68° ESE 23:53:11 23° S visible
04 Jul ? 01:23:12 10° N 01:27:07 24° WNW 01:31:09 10° WSW visible
04 Jul ? 22:47:34 10° NE 22:51:40 24° E 22:54:36 15° SE visible
